Miscellaneous Local Product
Issued by NWS Hastings, NE

Home | Current Version | Previous Version | Text Only | Print | Product List | Glossary On
Versions: 1 2 3 4 5 6 7 8 9 10 11 12 13 14 15 16 17 18 19 20 21 22 23 24 25 26 27 28 29 30 31 32 33 34 35 36 37 38 39 40 41 42 43 44 45 46 47 48 49 50
000
AXUS43 KGID 281502
MISGRI

GID CWA HOURLY WEATHER ROUNDUP
NATIONAL WEATHER SERVICE HASTINGS NE
1000 AM CDT THU AUG 28 2014

NOTE: "FAIR" INDICATES FEW OR NO CLOUDS BELOW 12,000 FEET WITH NO
SIGNIFICANT WEATHER AND/OR OBSTRUCTIONS TO VISIBILITY.

...SOUTH CENTRAL NEBRASKA...

CITY           SKY/WX    TMP DP  RH WIND       PRES   REMARKS
GRAND ISLAND   PTSUNNY   74  68  81 CALM      29.92S
HASTINGS       PTSUNNY   74  66  76 S12       29.91R
KEARNEY        CLOUDY    66  64  94 W10       29.94S
ORD            CLOUDY    69  66  90 CALM      29.93S
YORK           LGT RAIN  75 N/A N/A S6        29.91R
AURORA         PTSUNNY   73  71  91 SW3       29.91R
LEXINGTON      MOSUNNY   70  67  89 CALM      29.94F
HOLDREGE       CLOUDY    65  64  94 CALM      29.94F
HEBRON         MOSUNNY   75  65  71 S12G17    29.91S

...NEBRASKA PANHANDLE...

CITY           SKY/WX    TMP DP  RH WIND       PRES   REMARKS
CHADRON        CLOUDY    64  62  93 NW5       30.02R
ALLIANCE       CLOUDY    65  61  87 NW13      30.02S
SCOTTSBLUFF    CLOUDY    63  60  90 W10       30.06R
SIDNEY         SUNNY     67  57  70 NW15      30.07S

...WESTERN AND NORTH CENTRAL NEBRASKA...

CITY           SKY/WX    TMP DP  RH WIND       PRES   REMARKS
VALENTINE      CLOUDY    70  67  90 E3        29.92S
AINSWORTH      CLOUDY    70  66  88 S3        29.92S
ONEILL         CLOUDY    71  68  92 SE9       29.93S
BROKEN BOW     CLOUDY    70  67  90 VRB3      29.94F
IMPERIAL       PTSUNNY   67  62  84 NW8       30.00S
NORTH PLATTE   MOSUNNY   71  63  75 W5        29.97F
MCCOOK         SUNNY     70  63  78 NW8       29.97F

...EASTERN NEBRASKA...

CITY           SKY/WX    TMP DP  RH WIND       PRES   REMARKS
NORFOLK        CLOUDY    71  67  87 SE10      29.93R
SO SIOUX CITY  CLOUDY    71  68  90 SE10      29.93F
TEKAMAH        CLOUDY    73  69  87 SE13      29.93R
COLUMBUS       CLOUDY   N/A N/A N/A E5        29.93R
ALBION         RAIN      68  66  93 CALM      29.94S
OMAHA EPPLEY   PTSUNNY   73  69  87 SE14      29.93F
OFFUTT AFB     CLOUDY    72  72 100 E13       29.93F
MILLARD        CLOUDY    72  70  93 SE10      29.92F
LINCOLN        CLOUDY    74  70  87 S16       29.90F
NEBRASKA CITY  CLOUDY    72  72 100 S14       29.97R FOG
BEATRICE       CLOUDY    73  71  95 SE12      29.94S FOG
FALLS CITY     LGT RAIN  74  71  91 SW8       29.98S

...NORTHERN KANSAS...

CITY           SKY/WX    TMP DP  RH WIND       PRES   REMARKS
GOODLAND       SUNNY     69  60  73 NW12      30.03F
HILL CITY      CLOUDY    66  64  93 NW14      29.95R
NORTON         CLOUDY    64  61  88 CALM      29.95R
PHILLIPSBURG   RAIN      72  72 100 W6        29.93R
SMITH CENTER   SUNNY     73  68  83 SE14      29.92R
BELOIT         SUNNY     79  68  69 SE12G17   29.89S
HAYS           PTSUNNY   75  64  69 S15G21    29.90F
RUSSELL        PTSUNNY   78  66  66 S21G35    29.88F
CONCORDIA      MOSUNNY   75  69  81 SE14G23   29.92S
SALINA         LGT RAIN  75  70  84 SE8       29.94F
TOPEKA         MOSUNNY   85  70  60 SW5       29.97S



USA.gov is the U.S. government's official web portal to all federal, state and local government web resources and services.